Погода в Коркодоне

Погода в Коркодоне : погода сейчас, прогноз погоды и архив. Всё, что Вы хотите узнать о погоде в Коркодоне!

Поиск расширенной информации на нашем сайте:

Другие новости

Новости СМИ2

Главная страница сайта

Новости сайта

03.07.2017

Напоминаем, что на нашем специализированном сайте Метеоцентр.Азия вы можете получить высокодетализированные автоматические прогнозы погоды по пунктам России, СНГ и мира в авиационном формате (включающие направление и скорость ветра, видимость, явления погоды, количество и форму облачности, нижнюю и верхнюю границу облачности).


Погода в Коркодоне - сегодня

Время (UTC), дата Ветер
(°,м/с) 
Видим.   Явления Облачность Т
(°С)
Тd
(°С)
f(%) Тe
(°С)
Pmin
(гПа)
dP
(гПа)
Po
(мм)
O2
(г/м3)
Тmin Tmax R s Состояние
почвы
03 16.04.18 320 (СЗ) 20000 м    8/0 верхняя 
[Ci fib]
-1.8 -9.7 55 -1  1001.5  -1.8  742  302           
06 16.04.18 320 (СЗ) 20000 м    3/1 1000 м верхняя 
[Sc|Ci fib]
-1.3 -10.7 49 -1  999.9  -1.6  741  301           
12 16.04.18 290 (З) 20000 м    ясно 
-12.7 -15.4 80 -13  999.8  -0.2  740  314           
15 16.04.18 270 (З) 20000 м    ясно 
-13.6 -15.6 85 -16  999.3  -0.5  740  315           
18 16.04.18 270 (З) 20000 м    3/0 средняя 
[Ac trans]
-16.1 -17.4 90 -16  998.8  -0.6  739  318           
00 17.04.18 290 (З) 20000 м    ясно 
-7 -10.8 74 -8  997.7  -0.9  739  307           
03 17.04.18 270 (З) 20000 м    3/3 1000 м 
[Cu hum]
-2.8 -8.1 67 -4  996.5  -0.9  738  301           
06 17.04.18 320 (СЗ) 20000 м    ясно 
-1.2 -8.7 57 -2  996.4  -0.1  738  300           
09 17.04.18 270 (З) 20000 м    ясно 
-3.6 -10.6 58 -5  997.9  1.4  739  303    -1       
12 17.04.18 320 (СЗ) 20000 м    ясно 
-12.5 -14.5 85 -12  999.8  1.4  740  314           
15 17.04.18 тихо ()   20000 м    ясно 
-18.6 -19.2 95 -19  1001.2  1.1  741  322           
18 17.04.18 270 (З) 20000 м    3/0 верхняя 
[Ci fib]
-22 -22.6 95 -22  1002.9  1.5  742  327           
00 18.04.18 270 (З) 20000 м    ясно 
-4.7 -10.4 64 -4  1002.8  -0.3  743  305           
03 18.04.18 270 (З) 20000 м    8/3 1000 м верхняя 
[Sc|Ci fib]
+1 -8.2 50 +2  1002  -0.5  742  299           
06 18.04.18 тихо ()   20000 м    8/3 1000 м верхняя 
[Cu hum|Ci fib]
+1.3 -9 46 +1  1002  742  299           
12 18.04.18 020 (С) 20000 м    8/3 1000 м средняя, верхняя 
[Sc|Ac trans|Ci fib]
-6.8 -12 66 -6  1005.3  1.7  744  309           
15 18.04.18 тихо ()   20000 м    8/3 1000 м средняя, верхняя 
[Sc|Ac trans|Ci fib]
-13.3 -14.6 90 -13  1007.2  1.6  746  317           
18 18.04.18 тихо ()   20000 м    9/3 1000 м средняя 
[Sc|Ac trans]
-13.9 -15.2 90 -14  1008.7  1.5  747  318           
00 19.04.18 тихо ()   20000 м    8/8 1000 м 
-4 -9.9 63 -4  1009.9  53  748  307           
03 19.04.18 270 (З) 20000 м    8/4 1000 м средняя 
[Sc|Ac trans]
+0.4 -6.6 59 +1  1009.5  -0.3  748  302           
06 19.04.18 тихо ()   20000 м    9/5 1000 м средняя 
[Sc|Ac trans]
+1 -6.1 59 +1  1009.7  0.2  748  301           
12 19.04.18 тихо ()   20000 м    9/9 1000 м 
[Sc]
-2.6 -7 72 -3  1011.7  749  306           
15 19.04.18 270 (З) 20000 м    10/10 1000 м 
[Sc]
-3 -10.2 58 -4  1012.5  0.7  750  307           
18 19.04.18 320 (СЗ) 20000 м    10/10 1000 м 
[Sc]
-4 -8.5 71 -4  1013.2  0.7  750  308           
00 20.04.18 290 (З) 20000 м    6/4 1000 м средняя 
[Cu hum|Ac trans]
+0.6 -3.8 72 1013  -0.7  750  302           
Время (UTC), дата Ветер
(°,м/с) 
Видим.   Явления Облачность Т
(°С)
Тd
(°С)
f(%) Тe
(°С)
Pmin
(гПа)
dP
(гПа)
Po
(мм)
O2
(г/м3)
Тmin Tmax R s Состояние
почвы

Для получения пояснительной информации подведите курсор к названию столбца.

ПОГОДА в Коркодоне - архив

Всё, что Вы хотите узнать о погоде в Коркодоне - удобно и подробно!

Выберите нужную дату (начиная с 1 января 2015* года) и нажмите кнопку "Найти".
Будут отображены архивные сводки погоды по пункту Коркодон, начиная с указанной даты.


Отображать данные в формате CSV (для использования в таблицах Excel)


Внимание! Наш архив погоды предназначен исключительно для личного некоммерческого использования в познавательных целях. Если Вам необходимы официальные справки о состоянии погоды (для производственных, юридических, коммерческих и т.п. целей), обращайтесь в органы Росгидромета.

*Примечание: данная дата относится к архиву по метеостанциям СССР (Россия, СНГ, Балтия).
Архив по метеостанциям Зарубежной Европы и Азии (кроме Китая) хранится 10 дней, по другим регионам земного шара (Китай, Африка, Америка, Австралия, Океания) - 1 день.

Коркодон - район местоположения метеостанции


Название, широта, долгота, высота метеостанции:
Коркодон 64.7°ш. 154.1°д. 101 м над ур. моря [Российская Федерация]

Дополнительная информация

В oтличие oт бoльшинства пoгoдных сайтoв мы публикуем пoдрoбную метеoинфoрмацию в детальнoм прoфессиoнальнoм фoрмате.

Характеристики температуры и влажнoсти вoздуха измеряются на высoте 2 м в тени вдали oт зданий и деревьев.
Скoрoсть ветра измеряется на высoте 10 м (на урoвне рoста челoвека скoрoсть ветра ниже в 1.5-2 раза). Если метеoстанция нахoдится в гoрoде или в лесу, тo скoрoсть ветра занижена на 2-4 м/с пo сравнению с oткрытым местoм. Скoрoсть ветра над акватoриями крупных рек и oзёр, а также на вершинах хoлмoв на 2-5 м/с выше, чем в oбычных услoвиях.
Атмoсфернoе давление в разных тoчках местнoсти мoжет значительнo oтличаться oт давления на метеoстанции, в зависимoсти oт услoвий рельефа (при пoдъёме на 10 м давление пoнижается примернo на 1 мм рт.ст.).